Regional Weather Roundup
Issued by NWS

Home | Current Version | Previous Version | Graphics & Text | Print | Product List | Glossary On
Versions: 1 2 3 4 5 6 7 8 9 10 11 12 13 14 15 16 17 18 19 20 21 22 23 24 25 26 27 28 29 30 31 32 33 34 35 36 37 38 39 40 41 42 43 44 45 46 47 48 49 50
000
ASUS43 KDMX 022307
RWRIA

WEATHER ROUNDUP FOR IOWA
NATIONAL WEATHER SERVICE DES MOINES IA
600 PM CDT WED SEP 02 2015

NOTE: "FAIR" INDICATES FEW OR NO CLOUDS BELOW 12,000 FEET WITH NO
SIGNIFICANT WEATHER AND/OR OBSTRUCTIONS TO VISIBILITY.

* - THESE STATIONS ARE NOT NWS STATIONS...THUS NOT UNDER NWS
QUALITY CONTROL.  THEY ALSO DO NOT REPORT WEATHER SUCH
AS PRECIPITATION OR FOG.

IAZ001>003-012>014-020>022-031>034-043>046-030000-
   NORTHWEST IOWA

CITY           SKY/WX    TMP DP  RH WIND       PRES   REMARKS
CARROLL *      SUNNY     82  73  74 SW14G21   29.85F HX  88
CHEROKEE *     SUNNY     84  73  70 S9        29.84S HX  91
DENISON *      SUNNY     84  73  70 S9        29.83F HX  91
LE MARS *      SUNNY     84  73  70 S15       29.82S HX  91
ORANGE CITY *  SUNNY     82  73  74 S9        29.84R HX  88
SHELDON *      SUNNY     82  73  74 SW12G17   29.83R HX  88
SIOUX CITY     SUNNY     86  65  49 S14       29.81F HX  88
SPENCER        SUNNY     85  71  63 S10       29.84F HX  90
STORM LAKE *   SUNNY     82  73  74 S10       29.86F HX  88
$$

IAZ055>058-069>071-079>083-090>094-030000-
   SOUTHWEST IOWA

CITY           SKY/WX    TMP DP  RH WIND       PRES   REMARKS
ATLANTIC *     MOSUNNY   82  70  65 S9G18     29.87S HX  86
AUDUBON *      SUNNY     84  72  65 S12G20    29.88S HX  89
CLARINDA *     SUNNY     86  73  66 S12       29.90S HX  93
COUNCIL BLFS * SUNNY     86  73  66 S12       29.85F HX  93
CRESTON *      SUNNY     82  72  69 SW10G16   29.91S HX  87
LAMONI         PTSUNNY   83  71  67 S8        29.92R HX  87
RED OAK *      SUNNY     86  72  62 S12       29.87S HX  92
SHENANDOAH *   SUNNY     88  72  58 S12       29.87S HX  94
$$

IAZ047>049-059>061-072>074-084-030000-
   CENTRAL IOWA

CITY           SKY/WX    TMP DP  RH WIND       PRES   REMARKS
AMES           SUNNY     85  69  58 S12       29.87S HX  89
ANKENY *       PTSUNNY   86  70  58 S9        29.88S HX  90
CHARITON *     MOSUNNY   81  70  69 S9        29.92S HX  84
DES MOINES     MOSUNNY   86  67  52 S12       29.88S HX  89
GRINNELL*      SUNNY     84  68  58 S8        29.92S HX  87
KNOXVILLE *    MOSUNNY   82  70  65 S9        29.90S HX  86
MARSHALLTOWN   SUNNY     84  71  65 S10       29.89S HX  89
PELLA *        SUNNY     86  73  66 S7        29.91F HX  93
PERRY *          N/A     84  70  61 S13G21    29.87S HX  88
$$

IAZ004>006-015-016-023>025-035-036-030000-
   NORTH CENTRAL IOWA

CITY           SKY/WX    TMP DP  RH WIND       PRES   REMARKS
ALGONA *       SUNNY     84  73  70 S8        29.86S HX  91
CLARION *      SUNNY     84  72  65 SW9       29.87S HX  89
ESTHERVILLE    SUNNY     83  72  69 S10       29.85S HX  88
FORT DODGE *   SUNNY     84  70  61 SW8       29.87S HX  88
MASON CITY     SUNNY     85  72  65 S7        29.89S HX  91
FOREST CITY *  SUNNY     82  68  61 S7        29.88R HX  85
IOWA FALLS *     N/A     86  72  62 S8        29.90S HX  92
$$

IAZ007>011-017>019-026>030-037>042-050>054-066-030000-
   NORTHEAST IOWA

CITY           SKY/WX    TMP DP  RH WIND       PRES   REMARKS
CEDAR RAPIDS   SUNNY     81  71  71 S8        29.93S HX  85
CHARLES CITY * CLOUDY    82  73  74 S7        29.91S HX  88
CLINTON *      MOSUNNY   81  72  74 S7        29.97S HX  84
DECORAH *      CLOUDY    81  73  78 VRB7      29.91S HX  85
DUBUQUE        SUNNY     80  70  71 S12       29.95F HX  83
MONTICELLO *   PTSUNNY   82  72  69 VRB7      29.93F HX  87
OELWEIN *      MOSUNNY   82  72  69 S10       29.92F HX  87
WATERLOO       SUNNY     84  69  60 S13       29.89S HX  88
$$

IAZ064-065-067-068-078-030000-
   EAST CENTRAL IOWA

CITY           SKY/WX    TMP DP  RH WIND       PRES   REMARKS
DAVENPORT      PTSUNNY   82  71  69 S6        29.95S HX  86
IOWA CITY      MOSUNNY   83  69  62 S10       29.94S HX  86
MT. PLEASANT * SUNNY     86  68  54 CALM      29.95S HX  89
MUSCATINE *    CLOUDY    86  70  58 S8        29.94S HX  90
QUAD CITIES    CLOUDY    85  70  60 S6        29.94S HX  89
$$

IAZ062-063-075>077-085>089-095>099-030000-
   SOUTHEAST IOWA

CITY           SKY/WX    TMP DP  RH WIND       PRES   REMARKS
BURLINGTON     SUNNY     86  68  54 SW9       29.95S HX  89
FAIRFIELD *    SUNNY     84  70  61 S6G12     29.94F HX  88
FORT MADISON * SUNNY     84  70  61 S3        29.96F HX  88
KEOKUK *       SUNNY     86  68  54 S8        29.95S HX  89
OSKALOOSA *      N/A     84  70  61 S8        29.93S HX  88
CENTERVILLE *  SUNNY     82  73  74 S8        29.96S HX  88
OTTUMWA        SUNNY     84  72  67 S9        29.91F HX  89
WASHINGTON *     N/A    N/A N/A N/A MISG        N/A
$$

ABBREVIATIONS USED IN REMARKS
   TC - TEMPERATURES IN CELSIUS
  WCI - WIND CHILL INDEX
   HX - HEAT INDEX
  VSB - VISIBILITY
$$



USA.gov is the U.S. government's official web portal to all federal, state and local government web resources and services.